{"data":{"norad_id":67723,"epoch":"2026-05-25T02:34:59.390976Z","epoch_age_seconds":62797,"freshness":"FRESH","line1":"1 67723U 26026C   26145.10763184  .00014020  00000+0  43608-3 0  9999","line2":"2 67723  97.2849 198.5769 0000880 197.4839 162.6374 15.33424132 15832","mean_motion":15.33424132,"eccentricity":8.8e-5,"inclination_deg":97.2849,"raan_deg":198.5769,"arg_perigee_deg":197.4839,"mean_anomaly_deg":162.6374,"bstar":0.00043608,"rev_number":1583,"period_min":93.907482603776,"perigee_km":465.00301434916,"apogee_km":466.20751298757,"semimajor_km":6843.7422636684,"source":"CELESTRAK","updated_at":"2026-05-25T13:38:21.685180Z"}}